SCP
0 0 0 0 0 0 0 0 0 0 0 0 0 0 0 0 0 0 0 0 0 0 0 0 0 0 0 0 0 0 0 0 0 0 0 0 0 0 0 0 0 0 0 0
0 0 0 0 0 0 0 0 0 0 0 0 0 0 0 0 0 0 0 0 0 0 0 0 0 0 0 0 0 0 0 0 0 0 0 0 0 0 0 0 0 0 0 0
0 0 0 0 0 0 0 0 0 0 0 0 0 0 0 0 0 0 0 0 0 0 0 0 0 0 0 0 0 0 0 0 0 0 0 0 0 0 0 0 0 0 0 0
0 0 0 0 0 0 0 0 0 0 0 0 0 0 0 0 0 0 0 0 0 0 0 0 0 0 0 0 0 0 0 0 0 0 0 0 0 0 0 0 0 0 0 0
0 0 0 0 0 0 0 0 0 0 0 0 0 0 0 0 0 0 0 0 0 0 0 0 0 0 0 0 0 0 0 0 0 0 0 0 0 0 0 0 0 0 0 0
0 0 0 0 0 0 0 0 0 0 0 0 0 0 0 0 0 0 0 0 0 0 0 0 0 0 0 0 0 0 0 0 0 0 0 0 0 0 0 0 0 0 0 0
0 0 0 0 0 0 0 0 0 0 0 0 0 0 0 0 0 0 0 0 0 0 0 0 0 0 0 0 0 0 0 0 0 0 0 0 0 0 0 0 0 0 0 0
0 0 0 0 0 0 0 0 0 0 0 0 0 0 0 0 0 0 0 0 0 0 0 0 0 0 0 0 0 0 0 0 0 0 0 0 0 0 0 0 0 0 0 0
0 0 0 0 0 0 0 0 0 0 0 0 0 0 0 0 0 0 0 0 0 0 0 0 0 0 0 0 0 0 0 0 0 0 0 0 0 0 0 0 0 0 0 0
0 0 0 0 0 0 0 0 0 0 0 0 0 0 0 0 0 0 0 0 0 0 0 0 0 0 0 0 0 0 0 0 0 0 0 0 0 0 0 0 0 0 0 0
0 0 0 0 0 0 0 0 0 0 0 0 0 0 0 0 0 0 0 0 0 0 0 0 0 0 0 0 0 0 0 0 0 0 0 0 0 0 0 0 0 0 0 0
0 0 0 0 0 0 0 0 0 0 0 0 0 0 0 0 0 0 0 0 0 0 0 0 0 0 0 0 0 0 0 0 0 0 0 0 0 0 0 0 0 0 0 0
0 0 0 0 0 0 0 0 0 0 0 0 0 0 0 0 0 0 0 0 0 0 0 0 0 0 0 0 0 0 0 0 0 0 0 0 0 0 0 0 0 0 0 0
0 0 0 0 0 0 0 0 0 0 0 0 0 0 0 0 0 0 0 0 0 0 0 0 0 0 0 0 0 0 0 0 0 0 0 0 0 0 0 0 0 0 0 0
0 0 0 0 0 0 0 0 0 0 0 0 0 0 0 0 0 0 0 0 0 0 0 0 0 0 0 0 0 0 0 0 0 0 0 0 0 0 0 0 0 0 0 0
0 0 0 0 0 0 0 0 0 0 0 0 0 0 0 0 0 0 0 0 0 0 0 0 0 0 0 0 0 0 0 0 0 0 0 0 0 0 0 0 0 0 0 0
0 0 0 0 0 0 0 0 0 0 0 0 0 0 0 0 0 0 0 0 0 0 0 0 0 0 0 0 0 0 0 0 0 0 0 0 0 0 0 0 0 0 0 0
0 0 0 0 0 0 0 0 0 0 0 0 0 0 0 0 0 0 0 0 0 0 0 0 0 0 0 0 0 0 0 0 0 0 0 0 0 0 0 0 0 0 0 0
0 0 0 0 0 0 0 0 0 0 0 0 0 0 0 0 0 0 0 0 0 0 0 0 0 0 0 0 0 0 0 0 0 0 0 0 0 0 0 0 0 0 0 0
0 0 0 0 0 0 0 0 0 0 0 0 0 0 0 0 0 0 0 0 0 0 0 0 0 0 0 0 0 0 0 0 0 0 0 0 0 0 0 0 0 0 0 0
0 0 0 0 0 0 0 0 0 0 0 0 0 0 0 0 0 0 0 0 0 0 0 0 0 0 0 0 0 0 0 0 0 0 0 0 0 0 0 0 0 0 0 0
0 0 0 0 0 0 0 0 0 0 0 0 0 0 0 0 0 0 0 0 0 0 0 0 0 0 0 0 0 0 0 0 0 0 0 0 0 0 0 0 0 0 0 0
0 0 0 0 0 0 0 0 0 0 0 0 0 0 0 0 0 0 0 0 0 0 0 0 0 0 0 0 0 0 0 0 0 0 0 0 0 0 0 0 0 0 0 0
0 0 0 0 0 0 0 0 0 0 0 0 0 0 0 0 0 0 0 0 0 0 0 0 0 0 0 0 0 0 0 0 0 0 0 0 0 0 0 0 0 0 0 0
0 0 0 0 0 0 0 0 0 0 0 0 0 0 0 0 0 0 0 0 0 0 0 0 0 0 0 0 0 0 0 0 0 0 0 0 0 0 0 0 0 0 0 0
0 0 0 0 0 0 0 0 0 0 0 0 0 0 0 0 0 0 0 0 0 0 0 0 0 0 0 0 0 0 0 0 0 0 0 0 0 0 0 0 0 0 0 0
0 0 0 0 0 0 0 0 0 0 0 0 0 0 0 0 0 0 0 0 0 0 0 0 0 0 0 0 0 0 0 0 0 0 0 0 0 0 0 0 0 0 0 0
Wind_Speed
1 2 3 5 8 11 11 7 6 5 8 11 8 6 5 4 5 7 8 8 8 7 6 5 5 5 4 4 4 4 4 4 4 5 5 6 6 7 7 7 8 8 8 8
5 4 6 7 9 11 11 9 10 11 10 5 4 4 5 5 5 7 8 8 8 7 6 6 5 5 4 4 4 4 5 4 4 5 5 5 6 7 7 7 7 8 8 8
6 5 5 9 11 12 8 8 7 6 3 4 6 5 5 4 5 7 7 7 8 7 6 6 5 4 4 4 3 4 4 4 4 4 5 5 6 6 7 7 7 7 8 7
4 6 8 3 4 6 7 6 8 8 8 7 7 7 6 6 7 7 6 7 7 7 6 6 5 4 4 4 4 4 4 4 4 4 4 5 5 6 7 7 7 7 7 8
4 5 4 4 6 7 6 4 5 6 5 4 4 5 2 0 3 5 5 5 6 6 6 6 5 5 5 5 5 5 5 5 4 4 4 5 5 6 6 6 7 7 7 7
5 6 5 5 7 5 5 5 4 4 2 2 3 2 3 4 2 3 3 5 5 5 6 6 6 5 6 6 6 5 5 5 5 5 5 6 6 6 6 6 6 6 6 6
8 6 4 5 7 7 7 4 4 3 2 2 3 4 5 4 3 2 3 4 5 6 6 6 6 6 7 7 7 5 5 5 6 6 6 6 6 6 6 6 6 6 6 5
7 8 5 7 9 7 3 4 2 2 1 2 4 4 4 4 3 2 2 3 5 6 6 6 6 7 8 8 7 6 6 7 7 7 7 6 6 7 7 6 7 6 6 5
6 2 5 3 3 2 2 3 1 2 2 3 3 3 3 3 3 2 2 2 4 6 6 6 7 8 10 8 7 7 7 8 8 8 7 7 7 7 7 6 6 6 5 5
6 6 4 3 3 2 3 5 3 3 2 2 1 2 3 3 3 3 3 3 3 4 6 6 6 7 9 9 7 8 9 9 9 9 8 8 6 6 6 6 6 5 5 5
7 5 6 6 5 3 2 2 3 3 3 2 2 3 4 4 5 5 4 4 3 3 5 6 6 6 7 7 8 10 10 10 9 9 8 8 7 6 7 7 6 6 6 5
8 9 9 8 8 6 5 5 4 5 6 6 5 5 5 6 6 6 6 6 5 5 5 6 6 6 6 6 7 10 10 10 8 7 7 7 7 7 9 11 7 9 10 9
2 6 6 9 8 7 6 6 6 6 6 7 7 7 7 7 7 7 8 8 8 7 7 7 7 8 9 8 8 9 10 10 8 8 8 8 8 8 7 8 12 13 13 13
8 9 9 9 8 9 8 8 8 8 8 7 7 7 7 8 9 9 10 9 9 9 9 9 9 10 11 11 9 9 10 9 9 8 8 8 8 8 8 8 7 7 11 14
11 8 7 10 11 10 10 9 9 9 8 8 8 8 8 9 9 9 9 9 9 10 11 11 11 12 13 12 11 10 9 7 7 8 8 8 8 8 8 9 8 8 6 8
13 10 12 14 13 12 11 11 10 9 8 8 8 8 8 8 8 8 9 9 10 11 11 11 12 13 13 13 13 9 8 9 9 9 9 8 8 8 9 9 9 8 8 8
19 17 17 16 15 13 11 10 9 9 8 8 8 7 7 7 8 9 9 9 9 10 11 12 13 13 13 13 13 9 9 9 9 8 8 8 8 8 9 9 9 9 9 8
15 14 16 16 15 14 12 11 9 9 8 8 7 7 8 8 8 8 8 8 8 9 11 12 13 13 12 14 13 10 9 9 9 8 8 8 8 9 9 9 10 11 9 8
13 15 15 15 14 13 12 11 10 9 8 7 7 8 8 7 7 7 7 8 9 10 11 12 14 12 13 15 15 9 10 11 10 9 9 9 9 8 8 9 9 10 9 9
16 16 16 15 13 12 12 11 10 9 8 7 7 7 7 7 6 6 6 7 7 7 9 11 11 11 13 14 15 10 11 12 11 11 10 10 10 10 9 9 10 10 9 9
18 17 16 15 13 12 11 11 10 9 8 7 7 7 6 6 5 5 5 5 7 8 8 9 8 10 11 12 12 10 10 11 11 11 11 11 11 11 11 11 11 10 10 10
17 16 15 14 13 12 10 9 9 9 8 7 6 5 4 4 4 3 4 3 5 7 7 6 7 11 14 13 9 9 10 11 10 10 10 11 11 11 11 12 12 11 11 11
14 14 14 13 13 12 10 9 8 7 7 6 5 4 2 1 1 2 3 3 5 8 7 6 10 14 16 10 8 9 10 10 10 10 10 10 10 11 11 12 11 11 12 12
13 13 12 12 11 11 10 9 7 6 6 5 4 3 2 2 1 2 3 4 6 9 7 7 11 13 14 8 8 9 9 9 9 10 10 10 10 10 10 11 11 11 12 14
12 12 12 11 10 8 9 8 8 6 6 4 5 5 4 3 4 4 5 7 8 9 8 9 11 12 10 8 9 9 9 9 9 10 10 10 10 10 10 10 11 11 11 11
11 10 9 9 7 6 6 6 6 5 5 5 4 4 4 4 5 6 6 7 9 9 9 8 8 9 8 9 9 10 10 10 10 9 10 11 11 11 10 11 14 11 11 11
10 9 7 7 6 6 6 6 6 5 5 5 4 4 4 4 5 6 7 7 7 7 7 7 8 8 8 9 9 10 10 10 10 10 11 11 10 10 11 13 11 11 11 11
Wind_Direction
185 124 192 209 196 199 220 246 270 292 294 303 317 319 305 273 239 227 227 228 233 243 254 259 263 267 271 274 271 269 277 289 309 320 327 328 331 330 332 333 330 335 333 332
191 196 222 235 221 212 227 245 256 276 286 293 310 292 280 259 235 230 229 229 232 238 246 256 261 267 271 266 267 268 278 291 307 308 320 324 329 333 333 331 332 335 331 332
203 173 222 239 218 204 210 217 234 256 294 331 301 298 294 282 248 240 235 230 231 235 239 250 261 271 273 276 273 265 275 282 288 302 314 321 327 331 329 328 334 332 331 331
217 197 232 96 98 186 212 227 228 255 284 297 299 300 284 271 262 251 237 229 227 230 229 236 241 243 253 254 258 265 272 273 277 288 301 311 316 322 324 330 333 327 328 329
228 226 238 178 174 182 201 195 202 237 269 298 307 269 202 149 260 260 247 230 225 228 228 233 237 242 243 246 251 259 265 269 267 272 288 300 308 313 322 323 325 327 328 326
222 237 227 146 137 169 211 184 156 214 271 300 272 278 61 37 329 277 246 229 223 219 227 233 231 233 246 255 258 259 261 264 265 268 277 285 297 306 312 310 313 316 320 319
227 240 241 119 139 173 210 134 128 192 251 252 275 349 7 346 324 292 251 229 223 224 229 236 233 230 245 256 261 264 259 259 259 259 264 275 286 291 294 300 306 311 316 317
207 222 205 135 169 201 71 87 147 198 248 280 297 317 320 320 330 310 259 227 226 232 236 237 233 236 248 257 264 260 250 251 254 257 261 266 270 280 288 293 295 301 310 321
214 209 78 161 208 25 326 257 246 263 280 287 288 318 336 335 336 327 300 262 241 244 251 247 236 238 253 260 259 253 248 250 255 257 257 260 265 271 277 279 284 298 307 314
220 214 185 178 200 231 251 253 270 270 269 262 281 2 13 14 7 359 343 323 286 262 260 262 258 246 253 265 263 256 255 257 257 258 259 257 256 263 269 276 279 287 297 304
222 174 171 196 197 187 173 168 153 127 97 75 77 55 40 36 26 15 8 357 333 306 296 295 293 278 273 273 266 261 261 260 259 259 261 264 258 253 261 264 268 275 289 293
220 189 188 174 160 166 160 144 131 124 103 78 66 61 54 49 36 26 19 14 8 357 338 327 324 317 314 301 281 271 269 269 265 261 256 256 261 255 229 238 242 233 246 266
132 133 130 131 144 156 150 132 119 108 100 90 73 64 62 58 46 38 32 25 19 12 4 357 353 350 345 331 306 283 275 274 271 265 260 254 254 260 265 236 226 235 236 237
149 143 147 161 157 155 145 134 122 108 96 85 78 71 66 63 53 43 33 25 24 24 19 12 7 2 352 339 323 303 289 280 273 268 263 261 258 255 257 265 259 244 223 223
181 187 161 149 147 150 150 147 135 117 104 90 79 71 65 61 54 45 34 28 32 33 25 16 12 3 353 344 334 320 309 299 291 281 269 264 260 256 253 253 255 259 254 216
167 160 152 153 153 153 155 152 136 121 109 97 85 76 71 68 62 52 40 32 32 31 21 14 9 359 352 347 340 330 320 312 302 291 280 269 261 257 254 252 250 251 251 249
161 166 168 163 158 154 150 143 131 123 113 101 90 83 79 73 64 51 41 35 36 33 22 13 4 354 353 352 345 336 330 326 315 298 291 285 278 269 264 260 257 253 251 245
178 169 165 159 153 147 142 136 129 121 112 105 100 89 76 66 58 48 39 34 35 34 23 12 2 352 358 0 350 341 339 337 333 325 316 308 300 289 280 273 268 265 262 243
158 151 148 146 144 141 138 135 130 122 117 113 103 91 80 68 59 50 44 41 30 22 13 5 354 358 3 6 353 347 349 346 342 339 333 327 315 307 299 290 283 278 273 266
145 142 140 139 140 139 136 134 131 124 119 114 108 99 87 73 60 53 52 53 37 12 1 357 355 4 3 2 354 354 356 354 351 348 346 341 335 329 321 314 305 297 289 280
144 143 142 141 140 139 139 139 134 129 123 117 109 101 92 81 66 52 42 44 31 6 353 351 358 4 360 350 348 356 357 356 355 354 351 348 344 340 335 331 324 317 309 300
147 146 146 144 144 143 144 141 136 133 130 126 121 117 108 91 69 52 48 24 0 350 340 349 357 357 346 338 347 354 354 355 354 353 351 349 347 344 343 340 334 330 325 318
149 150 150 152 151 146 146 147 146 145 145 147 147 144 128 75 9 348 359 2 343 340 328 336 339 335 332 331 342 345 348 350 350 349 348 345 344 341 340 339 337 334 330 327
151 153 152 151 151 154 157 158 159 161 166 173 181 197 225 250 273 292 308 307 305 310 308 315 314 320 319 321 331 334 336 339 340 340 338 337 338 337 335 334 333 332 329 326
155 155 156 160 165 168 165 164 171 178 190 199 205 213 230 250 272 291 298 300 302 298 300 307 309 310 308 318 323 324 324 326 327 323 323 326 327 327 327 327 327 325 324 323
162 166 170 178 177 173 173 178 187 190 197 207 215 223 232 240 254 265 274 283 290 291 292 299 305 304 311 317 317 315 314 315 315 315 317 317 317 318 317 319 319 318 316 315
170 171 175 180 181 186 188 192 199 202 206 216 228 236 245 254 262 270 277 282 288 291 295 299 304 308 310 311 309 309 310 311 312 313 312 312 311 310 310 311 311 310 309 307